| time (UTC) | temp C | wind direction | speed KPH | gust KPH | rain 1hr cm | rain 24hr cm | rain mn cm | humidity % | barometer mb |
| 20260903070046 | 25 | 0.0 | 14.5 | 0.00 | 0.00 | 0.00 | 84 | 1013.4 | |
| 20260903064544 | 25 | 0.0 | 14.5 | 0.00 | 0.00 | 0.00 | 85 | 1013.5 | |
| 20260903063044 | 25 | 0.0 | 14.5 | 0.00 | 0.00 | 0.00 | 86 | 1013.5 | |
| 20260903061542 | 25 | 0.0 | 14.5 | 0.00 | 0.00 | 0.00 | 86 | 1013.6 | |
| 20260903060041 | 25 | 0.0 | 12.9 | 0.00 | 0.00 | 0.00 | 86 | 1013.6 | |
| 20260903054540 | 25 | 0.0 | 14.5 | 0.00 | 0.00 | 0.00 | 85 | 1013.6 | |
| 20260903053038 | 25 | 0.0 | 17.7 | 0.00 | 0.00 | 0.00 | 85 | 1013.5 | |
| 20260903051540 | 26 | 0.0 | 16.1 | 0.00 | 0.00 | 0.00 | 84 | 1013.4 | |
| 20260903050036 | 26 | 0.0 | 16.1 | 0.00 | 0.00 | 0.00 | 84 | 1013.3 | |
| 20260903044535 | 26 | 0.0 | 16.1 | 0.00 | 0.00 | 0.00 | 84 | 1013.2 | |
| 20260903043031 | 26 | 0.0 | 14.5 | 0.00 | 0.00 | 0.00 | 85 | 1013.1 | |
| 20260903041531 | 26 | 0.0 | 14.5 | 0.00 | 0.00 | 0.00 | 85 | 1013.2 | |
| 20260903040028 | 26 | 0.0 | 14.5 | 0.00 | 0.00 | 0.00 | 85 | 1013.2 | |
| 20260903034533 | 26 | 0.0 | 12.9 | 0.00 | 0.00 | 0.00 | 85 | 1013.2 | |
| 20260903033033 | 26 | 0.0 | 9.7 | 0.00 | 0.00 | 0.00 | 86 | 1013.3 | |
| 20260903031532 | 26 | 0.0 | 8.0 | 0.00 | 0.00 | 0.00 | 85 | 1013.5 | |
| 20260903030030 | 26 | 0.0 | 9.7 | 0.00 | 0.00 | 0.00 | 84 | 1013.4 | |
| 20260903024526 | 26 | 0.0 | 8.0 | 0.00 | 0.00 | 0.00 | 84 | 1013.6 | |
| 20260903023025 | 26 | 0.0 | 8.0 | 0.00 | 0.00 | 0.00 | 84 | 1013.5 | |
| 20260903021533 | 27 | 0.0 | 9.7 | 0.00 | 0.00 | 0.00 | 84 | 1013.5 | |
| 20260903020023 | 26 | 0.0 | 9.7 | 0.00 | 0.00 | 0.00 | 84 | 1013.5 | |
| 20260903014521 | 27 | 0.0 | 14.5 | 0.00 | 0.00 | 0.00 | 83 | 1013.4 | |
| 20260903013021 | 27 | 0.0 | 16.1 | 0.00 | 0.00 | 0.00 | 82 | 1013.3 | |
| 20260903011519 | 27 | 0.0 | 12.9 | 0.00 | 0.00 | 0.00 | 81 | 1013.2 | |
| 20260903010019 | 28 | 0.0 | 8.0 | 0.00 | 0.00 | 0.00 | 79 | 1013.1 | |
| 20260903004527 | 28 | 0.0 | 8.0 | 0.00 | 0.00 | 0.00 | 78 | 1012.9 | |
| 20260903003018 | 28 | 0.0 | 6.4 | 0.00 | 0.00 | 0.00 | 78 | 1012.9 | |
| 20260903001517 | 29 | 0.0 | 9.7 | 0.00 | 0.00 | 0.00 | 77 | 1013.0 | |
| 20260903000017 | 30 | 0.0 | 8.0 | 0.00 | 0.00 | 0.00 | 77 | 1013.0 | |
| 20260902234517 | 30 | 0.0 | 8.0 | 0.00 | 0.00 | 0.00 | 77 | 1012.9 | |
| 20260902233017 | 30 | 0.0 | 8.0 | 0.00 | 0.00 | 0.00 | 77 | 1012.9 | |
| 20260902231518 | 31 | 0.0 | 8.0 | 0.00 | 0.00 | 0.00 | 76 | 1012.9 | |
| 20260902230015 | 31 | 0.0 | 12.9 | 0.00 | 0.00 | 0.00 | 73 | 1012.9 | |
| 20260902224514 | 31 | 0.0 | 12.9 | 0.00 | 0.00 | 0.00 | 71 | 1012.9 | |
| 20260902223015 | 32 | 0.0 | 17.7 | 0.00 | 0.00 | 0.00 | 69 | 1013.0 | |
| 20260902221517 | 32 | 0.0 | 17.7 | 0.00 | 0.00 | 0.00 | 68 | 1013.0 | |
| 20260902220013 | 32 | 360 | 0.0 | 17.7 | 0.00 | 0.00 | 0.00 | 66 | 1012.9 |
| 20260902214512 | 32 | 0.0 | 19.3 | 0.00 | 0.00 | 0.00 | 66 | 1012.9 | |
| 20260902213013 | 32 | 0.0 | 22.5 | 0.00 | 0.00 | 0.00 | 67 | 1012.9 | |
| 20260902211512 | 33 | 0.0 | 20.9 | 0.00 | 0.00 | 0.00 | 64 | 1012.9 | |
| 20260902210009 | 33 | 0.0 | 19.3 | 0.00 | 0.00 | 0.00 | 63 | 1013.0 | |
| 20260902204507 | 33 | 0.0 | 19.3 | 0.00 | 0.00 | 0.00 | 61 | 1013.1 | |
| 20260902203005 | 33 | 0.0 | 24.1 | 0.00 | 0.00 | 0.00 | 61 | 1013.2 | |
| 20260902201503 | 33 | 0.0 | 20.9 | 0.00 | 0.00 | 0.00 | 61 | 1013.2 | |
| 20260902200100 | 33 | 0.0 | 20.9 | 0.00 | 0.00 | 0.00 | 61 | 1013.3 | |
| 20260902194557 | 33 | 0.0 | 24.1 | 0.00 | 0.00 | 0.00 | 58 | 1013.5 | |
| 20260902193057 | 33 | 0.0 | 25.7 | 0.00 | 0.00 | 0.00 | 60 | 1013.7 | |
| 20260902191600 | 33 | 0.0 | 22.5 | 0.00 | 0.00 | 0.00 | 60 | 1013.8 | |
| 20260902190056 | 33 | 0.0 | 24.1 | 0.00 | 0.00 | 0.00 | 61 | 1013.9 | |
| 20260902184613 | 33 | 0.0 | 22.5 | 0.00 | 0.00 | 0.00 | 59 | 1014.0 | |
| 20260902183057 | 33 | 0.0 | 24.1 | 0.00 | 0.00 | 0.00 | 60 | 1013.9 | |
| 20260902181548 | 33 | 0.0 | 19.3 | 0.00 | 0.00 | 0.00 | 59 | 1014.2 | |
| 20260902180048 | 33 | 0.0 | 20.9 | 0.00 | 0.00 | 0.00 | 62 | 1014.3 | |
| 20260902174545 | 33 | 0.0 | 19.3 | 0.00 | 0.00 | 0.00 | 59 | 1014.5 | |
| 20260902173042 | 33 | 0.0 | 19.3 | 0.00 | 0.00 | 0.00 | 61 | 1014.5 | |
| 20260902171541 | 32 | 0.0 | 19.3 | 0.00 | 0.00 | 0.00 | 62 | 1014.7 | |
| 20260902170038 | 32 | 0.0 | 19.3 | 0.00 | 0.00 | 0.00 | 61 | 1014.8 | |
| 20260902164535 | 32 | 0.0 | 16.1 | 0.00 | 0.00 | 0.00 | 64 | 1014.8 | |
| 20260902163032 | 32 | 0.0 | 17.7 | 0.00 | 0.00 | 0.00 | 64 | 1015.0 | |
| 20260902161528 | 31 | 0.0 | 19.3 | 0.00 | 0.00 | 0.00 | 64 | 1015.0 | |
| 20260902160023 | 31 | 0.0 | 20.9 | 0.00 | 0.00 | 0.00 | 66 | 1015.0 | |
| 20260902154520 | 31 | 0.0 | 22.5 | 0.00 | 0.00 | 0.00 | 68 | 1015.0 | |
| 20260902153021 | 30 | 0.0 | 19.3 | 0.00 | 0.00 | 0.00 | 69 | 1015.2 | |
| 20260902151516 | 30 | 0.0 | 19.3 | 0.00 | 0.00 | 0.00 | 70 | 1015.2 | |
| 20260902150015 | 30 | 0.0 | 22.5 | 0.00 | 0.00 | 0.00 | 69 | 1015.1 | |
| 20260902144522 | 30 | 0.0 | 22.5 | 0.00 | 0.00 | 0.00 | 70 | 1015.1 | |
| 20260902143007 | 29 | 0.0 | 20.9 | 0.00 | 0.00 | 0.00 | 73 | 1015.2 | |
| 20260902141502 | 28 | 0.0 | 17.7 | 0.00 | 0.00 | 0.00 | 73 | 1015.2 | |
| 20260902140106 | 28 | 0.0 | 17.7 | 0.00 | 0.00 | 0.00 | 75 | 1015.2 | |
| 20260902134605 | 27 | 0.0 | 19.3 | 0.00 | 0.00 | 0.00 | 78 | 1015.2 | |
| 20260902133055 | 27 | 0.0 | 16.1 | 0.00 | 0.00 | 0.00 | 79 | 1015.5 | |
| 20260902131549 | 26 | 0.0 | 14.5 | 0.00 | 0.00 | 0.00 | 81 | 1015.7 | |
| 20260902130046 | 25 | 0.0 | 16.1 | 0.00 | 0.00 | 0.00 | 82 | 1015.8 | |
| 20260902124538 | 25 | 0.0 | 12.9 | 0.00 | 0.00 | 0.00 | 84 | 1015.7 | |
| 20260902123035 | 24 | 0.0 | 9.7 | 0.00 | 0.00 | 0.00 | 86 | 1015.7 | |
| 20260902121631 | 23 | 0.0 | 9.7 | 0.00 | 0.00 | 0.00 | 86 | 1015.7 | |
| 20260902120025 | 22 | 0.0 | 6.4 | 0.00 | 0.00 | 0.00 | 87 | 1015.7 | |
| 20260902114522 | 22 | 0.0 | 3.2 | 0.00 | 0.00 | 0.00 | 87 | 1015.7 | |
| 20260902113021 | 22 | 0.0 | 4.8 | 0.00 | 0.00 | 0.00 | 87 | 1015.6 | |
| 20260902111517 | 22 | 0.0 | 4.8 | 0.00 | 0.00 | 0.00 | 87 | 1015.4 | |
| 20260902110012 | 22 | 0.0 | 6.4 | 0.00 | 0.00 | 0.00 | 85 | 1015.4 | |
| 20260902104514 | 23 | 0.0 | 8.0 | 0.00 | 0.00 | 0.00 | 85 | 1015.1 | |
| 20260902103008 | 23 | 0.0 | 9.7 | 0.00 | 0.00 | 0.00 | 85 | 1015.0 | |
| 20260902101507 | 23 | 0.0 | 8.0 | 0.00 | 0.00 | 0.00 | 85 | 1014.9 | |
| 20260902100005 | 23 | 0.0 | 8.0 | 0.00 | 0.00 | 0.00 | 86 | 1014.7 | |
| 20260902094504 | 23 | 0.0 | 4.8 | 0.00 | 0.00 | 0.00 | 85 | 1014.6 | |
| 20260902093003 | 23 | 0.0 | 6.4 | 0.00 | 0.00 | 0.00 | 85 | 1014.7 | |
| 20260902091502 | 23 | 0.0 | 4.8 | 0.00 | 0.00 | 0.00 | 86 | 1014.6 | |
| 20260902090001 | 23 | 0.0 | 4.8 | 0.00 | 0.00 | 0.00 | 85 | 1014.6 | |
| 20260902084501 | 23 | 0.0 | 6.4 | 0.00 | 0.00 | 0.00 | 85 | 1014.6 | |
| 20260902083001 | 23 | 0.0 | 4.8 | 0.00 | 0.00 | 0.00 | 86 | 1014.5 | |
| 20260902081559 | 23 | 0.0 | 3.2 | 0.00 | 0.00 | 0.00 | 86 | 1014.5 | |
| 20260902080113 | 23 | 0.0 | 6.4 | 0.00 | 0.00 | 0.00 | 84 | 1014.5 | |
| 20260902074557 | 24 | 0.0 | 8.0 | 0.00 | 0.00 | 0.00 | 83 | 1014.4 | |
| 20260902073106 | 24 | 0.0 | 8.0 | 0.00 | 0.00 | 0.00 | 83 | 1014.4 | |
| 20260902071609 | 24 | 0.0 | 9.7 | 0.00 | 0.00 | 0.00 | 84 | 1014.3 |